AAL7071 KBOS-KDCA

Flight info

Callsign AAL7071
Flight time 1h 15m
Altitude 38000
Route SSOXS7 SSOXS Q167 ZIZZI KNUKK ATR LAFLN DEALE3
Aircraft B38M/M-SDE1FGHILORVWXY/HB1

Departure

Time 2026-05-05 22:42
Airport Boston Logan International Airport (KBOS)

Arrival

Time 2026-05-05 23:58
Airport Ronald Reagan Washington National Airport (KDCA)
Time Latitude Longitude Altitude Speed Heading
2026-05-05 21:47 42.36564 -71.01663 28 ft 0 kts 336°
2026-05-05 22:19 42.36550 -71.01656 28 ft 4 kts 347°
2026-05-05 22:19 42.36524 -71.01652 28 ft 4 kts 354°
2026-05-05 22:20 42.36503 -71.01647 28 ft 4 kts 346°
2026-05-05 22:20 42.36489 -71.01642 28 ft 0 kts 339°
2026-05-05 22:27 42.36508 -71.01656 28 ft 9 kts 317°
2026-05-05 22:28 42.36502 -71.01693 28 ft 6 kts 195°
2026-05-05 22:28 42.36456 -71.01608 28 ft 16 kts 119°
2026-05-05 22:28 42.36430 -71.01547 28 ft 0 kts 120°
2026-05-05 22:28 42.36413 -71.01509 28 ft 13 kts 121°
2026-05-05 22:29 42.36405 -71.01489 28 ft 0 kts 114°
2026-05-05 22:29 42.36405 -71.01488 28 ft 1 kts 114°
2026-05-05 22:29 42.36399 -71.01466 28 ft 4 kts 104°
2026-05-05 22:30 42.36422 -71.01398 28 ft 14 kts 31°
2026-05-05 22:30 42.36551 -71.01315 28 ft 26 kts 25°
2026-05-05 22:30 42.36714 -71.01248 28 ft 23 kts 12°
2026-05-05 22:30 42.36838 -71.01274 28 ft 16 kts 27°
2026-05-05 22:31 42.36929 -71.01176 28 ft 18 kts 40°
2026-05-05 22:31 42.37041 -71.01075 28 ft 21 kts 27°
2026-05-05 22:31 42.37180 -71.00986 28 ft 23 kts 25°
2026-05-05 22:31 42.37338 -71.00892 28 ft 26 kts 21°
2026-05-05 22:32 42.37516 -71.00804 28 ft 28 kts 19°
2026-05-05 22:32 42.37688 -71.00723 28 ft 18 kts 19°
2026-05-05 22:32 42.37716 -71.00710 28 ft 0 kts 19°
2026-05-05 22:32 42.37719 -71.00709 28 ft 2 kts 19°
2026-05-05 22:33 42.37724 -71.00707 28 ft 0 kts 19°
2026-05-05 22:33 42.37730 -71.00703 28 ft 3 kts 20°
2026-05-05 22:33 42.37761 -71.00688 28 ft 5 kts 21°
2026-05-05 22:34 42.37767 -71.00685 28 ft 0 kts 21°
2026-05-05 22:34 42.37770 -71.00683 28 ft 2 kts 21°
2026-05-05 22:34 42.37773 -71.00681 28 ft 0 kts 21°
2026-05-05 22:36 42.37778 -71.00679 28 ft 2 kts 21°
2026-05-05 22:36 42.37795 -71.00670 28 ft 2 kts 21°
2026-05-05 22:36 42.37821 -71.00655 28 ft 6 kts 31°
2026-05-05 22:37 42.37825 -71.00650 28 ft 0 kts 38°
2026-05-05 22:37 42.37828 -71.00646 28 ft 0 kts 44°
2026-05-05 22:38 42.37832 -71.00641 28 ft 2 kts 49°
2026-05-05 22:38 42.37837 -71.00589 28 ft 10 kts 104°
2026-05-05 22:39 42.37835 -71.00579 28 ft 0 kts 107°
2026-05-05 22:39 42.37834 -71.00578 28 ft 0 kts 107°
2026-05-05 22:40 42.37834 -71.00577 28 ft 1 kts 107°
2026-05-05 22:41 42.37827 -71.00547 28 ft 9 kts 107°
2026-05-05 22:41 42.37771 -71.00485 28 ft 0 kts 197°
2026-05-05 22:42 42.37733 -71.00501 28 ft 30 kts 198°
2026-05-05 22:42 42.37261 -71.00731 29 ft 113 kts 199°
2026-05-05 22:42 42.36290 -71.01205 50 ft 179 kts 199°
2026-05-05 22:42 42.35048 -71.01755 740 ft 195 kts 196°
2026-05-05 22:43 42.33673 -71.01771 1386 ft 210 kts 168°
2026-05-05 22:43 42.32411 -71.00594 1884 ft 239 kts 137°
2026-05-05 22:43 42.31473 -70.98577 2272 ft 267 kts 125°
2026-05-05 22:43 42.30661 -70.96270 2988 ft 281 kts 117°
2026-05-05 22:44 42.30324 -70.93555 3413 ft 299 kts 94°
2026-05-05 22:44 42.30825 -70.90849 3794 ft 296 kts 69°
2026-05-05 22:44 42.31582 -70.88302 4921 ft 294 kts 74°
2026-05-05 22:44 42.32222 -70.85613 5519 ft 309 kts 78°
2026-05-05 22:45 42.32783 -70.82772 6281 ft 315 kts 82°
2026-05-05 22:45 42.32862 -70.79894 7509 ft 304 kts 107°
2026-05-05 22:45 42.32200 -70.77212 8583 ft 301 kts 121°
2026-05-05 22:45 42.31369 -70.74583 9641 ft 307 kts 121°
2026-05-05 22:46 42.30496 -70.71912 10615 ft 317 kts 121°
2026-05-05 22:46 42.29279 -70.69417 11328 ft 319 kts 142°
2026-05-05 22:46 42.27458 -70.67771 12045 ft 321 kts 163°
2026-05-05 22:46 42.25339 -70.66685 12748 ft 333 kts 166°
2026-05-05 22:47 42.23172 -70.65625 13472 ft 342 kts 166°
2026-05-05 22:47 42.20919 -70.64552 14441 ft 344 kts 166°
2026-05-05 22:47 42.18648 -70.63489 15339 ft 348 kts 166°
2026-05-05 22:47 42.16349 -70.62431 16180 ft 350 kts 167°
2026-05-05 22:48 42.13975 -70.61959 16988 ft 344 kts 187°
2026-05-05 22:48 42.11646 -70.62564 17749 ft 343 kts 199°
2026-05-05 22:48 42.09353 -70.63471 18486 ft 347 kts 199°
2026-05-05 22:48 42.07033 -70.64433 19210 ft 350 kts 200°
2026-05-05 22:49 42.04697 -70.65427 19894 ft 354 kts 200°
2026-05-05 22:49 42.02339 -70.66447 20567 ft 357 kts 200°
2026-05-05 22:49 41.99964 -70.67483 21213 ft 361 kts 200°
2026-05-05 22:49 41.97546 -70.68543 21829 ft 365 kts 200°
2026-05-05 22:50 41.95149 -70.69595 22402 ft 369 kts 200°
2026-05-05 22:50 41.92690 -70.70674 22987 ft 373 kts 200°
2026-05-05 22:50 41.90209 -70.71761 23566 ft 377 kts 200°
2026-05-05 22:50 41.87709 -70.72857 24117 ft 380 kts 200°
2026-05-05 22:51 41.85176 -70.73966 24637 ft 384 kts 200°
2026-05-05 22:51 41.82707 -70.75337 25135 ft 385 kts 212°
2026-05-05 22:51 41.80378 -70.77127 25618 ft 389 kts 211°
2026-05-05 22:51 41.77996 -70.78906 26076 ft 394 kts 211°
2026-05-05 22:52 41.75600 -70.80702 26539 ft 397 kts 211°
2026-05-05 22:52 41.73176 -70.82524 26968 ft 402 kts 211°
2026-05-05 22:52 41.70722 -70.84359 27454 ft 405 kts 212°
2026-05-05 22:52 41.68254 -70.86213 27876 ft 410 kts 212°
2026-05-05 22:53 41.65754 -70.88086 28312 ft 414 kts 212°
2026-05-05 22:53 41.63233 -70.89969 28765 ft 416 kts 212°
2026-05-05 22:53 41.60708 -70.91856 29167 ft 419 kts 212°
2026-05-05 22:53 41.58156 -70.93762 29535 ft 422 kts 212°
2026-05-05 22:54 41.55650 -70.95821 29867 ft 422 kts 222°
2026-05-05 22:54 41.53661 -70.98654 30245 ft 419 kts 237°
2026-05-05 22:54 41.51992 -71.01853 30555 ft 423 kts 237°
2026-05-05 22:54 41.50311 -71.05103 30931 ft 425 kts 237°
2026-05-05 22:55 41.48654 -71.08353 31450 ft 423 kts 238°
2026-05-05 22:55 41.47011 -71.11606 31917 ft 422 kts 238°
2026-05-05 22:55 41.45375 -71.14858 32390 ft 422 kts 238°
2026-05-05 22:55 41.43753 -71.18085 32853 ft 421 kts 237°
2026-05-05 22:56 41.42130 -71.21312 33313 ft 419 kts 237°
2026-05-05 22:56 41.40508 -71.24534 33737 ft 419 kts 237°
2026-05-05 22:56 41.38886 -71.27753 34148 ft 418 kts 237°
2026-05-05 22:56 41.37269 -71.30959 34608 ft 416 kts 237°
2026-05-05 22:57 41.35663 -71.34145 35112 ft 412 kts 237°
2026-05-05 22:57 41.34070 -71.37300 35571 ft 409 kts 237°
2026-05-05 22:57 41.32485 -71.40439 35969 ft 408 kts 237°
2026-05-05 22:57 41.30906 -71.43560 36346 ft 406 kts 237°
2026-05-05 22:58 41.29329 -71.46676 36698 ft 405 kts 237°
2026-05-05 22:58 41.27767 -71.49757 37066 ft 403 kts 237°
2026-05-05 22:58 41.26206 -71.52835 37475 ft 399 kts 237°
2026-05-05 22:58 41.24660 -71.55879 37832 ft 396 kts 237°
2026-05-05 22:59 41.23115 -71.58919 37958 ft 399 kts 237°
2026-05-05 22:59 41.19966 -71.65106 37932 ft 402 kts 237°
2026-05-05 23:00 41.15370 -71.74113 37932 ft 389 kts 237°
2026-05-05 23:00 41.12378 -71.80002 37939 ft 390 kts 237°
2026-05-05 23:01 41.09345 -71.85961 37947 ft 390 kts 237°
2026-05-05 23:01 41.06303 -71.91926 37947 ft 390 kts 237°
2026-05-05 23:02 41.03315 -71.97930 37932 ft 390 kts 244°
2026-05-05 23:02 41.01027 -72.04421 37931 ft 390 kts 246°
2026-05-05 23:03 40.98729 -72.10918 37940 ft 390 kts 246°
2026-05-05 23:03 40.96432 -72.17417 37935 ft 390 kts 246°
2026-05-05 23:04 40.94134 -72.23906 37936 ft 390 kts 246°
2026-05-05 23:04 40.91774 -72.30304 37924 ft 392 kts 237°
2026-05-05 23:05 40.89978 -72.33012 37943 ft 393 kts 226°
2026-05-05 23:05 40.88062 -72.35601 37924 ft 395 kts 228°
2026-05-05 23:05 40.84198 -72.40782 37933 ft 396 kts 227°
2026-05-05 23:06 40.80271 -72.45899 37931 ft 398 kts 224°
2026-05-05 23:06 40.75982 -72.50529 37941 ft 399 kts 222°
2026-05-05 23:07 40.71692 -72.55255 37946 ft 407 kts 223°
2026-05-05 23:07 40.67361 -72.60164 37939 ft 413 kts 224°
2026-05-05 23:08 40.63072 -72.65105 37939 ft 414 kts 224°
2026-05-05 23:08 40.58744 -72.70069 37934 ft 413 kts 224°
2026-05-05 23:09 40.54403 -72.75036 37926 ft 414 kts 224°
2026-05-05 23:09 40.50784 -72.79172 37926 ft 414 kts 224°
2026-05-05 23:10 40.48618 -72.81644 37801 ft 409 kts 224°
2026-05-05 23:10 40.46467 -72.84097 37068 ft 411 kts 224°
2026-05-05 23:10 40.44304 -72.86561 36419 ft 412 kts 224°
2026-05-05 23:10 40.42147 -72.89017 36056 ft 410 kts 224°
2026-05-05 23:11 40.39982 -72.91479 35794 ft 414 kts 224°
2026-05-05 23:11 40.37794 -72.93965 35543 ft 418 kts 224°
2026-05-05 23:11 40.35588 -72.96469 35297 ft 421 kts 224°
2026-05-05 23:11 40.33358 -72.98999 35050 ft 425 kts 224°
2026-05-05 23:12 40.31118 -73.01537 34797 ft 425 kts 224°
2026-05-05 23:12 40.28879 -73.04072 34578 ft 425 kts 224°
2026-05-05 23:12 40.26646 -73.06599 34327 ft 424 kts 224°
2026-05-05 23:12 40.24414 -73.09125 34083 ft 424 kts 224°
2026-05-05 23:13 40.22170 -73.11664 33899 ft 429 kts 224°
2026-05-05 23:13 40.19904 -73.14224 33887 ft 433 kts 224°
2026-05-05 23:13 40.15293 -73.19428 33900 ft 440 kts 224°
2026-05-05 23:14 40.10653 -73.24656 33907 ft 440 kts 224°
2026-05-05 23:14 40.06005 -73.29874 33914 ft 440 kts 224°
2026-05-05 23:15 40.01356 -73.35082 33916 ft 441 kts 224°
2026-05-05 23:15 39.96691 -73.40299 33915 ft 442 kts 224°
2026-05-05 23:16 39.92013 -73.45521 33920 ft 444 kts 224°
2026-05-05 23:16 39.87334 -73.50735 33916 ft 443 kts 224°
2026-05-05 23:17 39.82647 -73.55957 33915 ft 443 kts 224°
2026-05-05 23:17 39.77962 -73.61172 33923 ft 444 kts 224°
2026-05-05 23:18 39.73268 -73.66387 33925 ft 444 kts 224°
2026-05-05 23:18 39.68570 -73.71597 33925 ft 444 kts 224°
2026-05-05 23:19 39.63873 -73.76796 33929 ft 444 kts 224°
2026-05-05 23:19 39.59175 -73.81987 33935 ft 444 kts 224°
2026-05-05 23:20 39.54480 -73.87164 33933 ft 444 kts 224°
2026-05-05 23:20 39.49773 -73.92346 33935 ft 444 kts 224°
2026-05-05 23:21 39.45064 -73.97520 33948 ft 444 kts 224°
2026-05-05 23:21 39.40356 -74.02683 33949 ft 443 kts 224°
2026-05-05 23:22 39.35654 -74.07823 33951 ft 444 kts 224°
2026-05-05 23:22 39.30947 -74.12961 33950 ft 444 kts 224°
2026-05-05 23:23 39.26221 -74.18110 33950 ft 444 kts 224°
2026-05-05 23:23 39.21508 -74.23236 33950 ft 444 kts 224°
2026-05-05 23:24 39.16777 -74.28373 33954 ft 444 kts 224°
2026-05-05 23:24 39.12046 -74.33499 33948 ft 444 kts 224°
2026-05-05 23:25 39.07311 -74.38621 33960 ft 445 kts 224°
2026-05-05 23:25 39.02610 -74.43763 33963 ft 437 kts 229°
2026-05-05 23:26 39.00760 -74.46754 33390 ft 424 kts 245°
2026-05-05 23:26 38.99674 -74.50202 32479 ft 422 kts 258°
2026-05-05 23:26 38.99157 -74.53967 31594 ft 423 kts 263°
2026-05-05 23:26 38.98647 -74.57678 31105 ft 418 kts 262°
2026-05-05 23:27 38.98132 -74.61261 30852 ft 408 kts 262°
2026-05-05 23:27 38.97618 -74.64788 30643 ft 396 kts 262°
2026-05-05 23:27 38.97100 -74.68282 30429 ft 403 kts 262°
2026-05-05 23:27 38.96557 -74.71861 30032 ft 412 kts 262°
2026-05-05 23:28 38.96007 -74.75480 29413 ft 413 kts 261°
2026-05-05 23:28 38.95462 -74.79083 28813 ft 410 kts 261°
2026-05-05 23:28 38.94918 -74.82672 28249 ft 407 kts 261°
2026-05-05 23:28 38.94379 -74.86227 27695 ft 404 kts 261°
2026-05-05 23:29 38.93842 -74.89761 27139 ft 402 kts 261°
2026-05-05 23:29 38.93308 -74.93269 26595 ft 399 kts 261°
2026-05-05 23:29 38.92776 -74.96753 26052 ft 396 kts 260°
2026-05-05 23:29 38.92247 -75.00212 25518 ft 393 kts 260°
2026-05-05 23:30 38.91726 -75.03617 24995 ft 390 kts 260°
2026-05-05 23:30 38.91202 -75.07028 24478 ft 387 kts 259°
2026-05-05 23:30 38.90685 -75.10390 23972 ft 384 kts 259°
2026-05-05 23:30 38.90169 -75.13741 23468 ft 381 kts 259°
2026-05-05 23:31 38.89655 -75.17070 22971 ft 378 kts 259°
2026-05-05 23:31 38.89144 -75.20373 22489 ft 375 kts 259°
2026-05-05 23:31 38.88638 -75.23640 22020 ft 372 kts 259°
2026-05-05 23:31 38.88136 -75.26874 21557 ft 368 kts 259°
2026-05-05 23:32 38.87637 -75.30081 21102 ft 365 kts 259°
2026-05-05 23:32 38.87141 -75.33259 20657 ft 361 kts 259°
2026-05-05 23:32 38.86650 -75.36403 20219 ft 358 kts 259°
2026-05-05 23:32 38.86165 -75.39509 19963 ft 350 kts 259°
2026-05-05 23:33 38.85694 -75.42523 19456 ft 344 kts 259°
2026-05-05 23:33 38.85211 -75.45580 18564 ft 355 kts 259°
2026-05-05 23:33 38.84736 -75.48601 18548 ft 339 kts 259°
2026-05-05 23:33 38.84278 -75.51524 18392 ft 330 kts 259°
2026-05-05 23:34 38.83818 -75.54426 17720 ft 336 kts 259°
2026-05-05 23:34 38.83345 -75.57403 16904 ft 345 kts 258°
2026-05-05 23:34 38.82866 -75.60413 16421 ft 343 kts 258°
2026-05-05 23:34 38.82393 -75.63391 16009 ft 339 kts 258°
2026-05-05 23:35 38.81923 -75.66342 15558 ft 336 kts 258°
2026-05-05 23:35 38.81458 -75.69261 15109 ft 333 kts 258°
2026-05-05 23:35 38.80997 -75.72154 14675 ft 330 kts 258°
2026-05-05 23:35 38.80538 -75.75025 14237 ft 327 kts 258°
2026-05-05 23:36 38.80083 -75.77865 13792 ft 324 kts 258°
2026-05-05 23:36 38.79632 -75.80673 13336 ft 321 kts 257°
2026-05-05 23:36 38.79184 -75.83463 12912 ft 318 kts 257°
2026-05-05 23:36 38.78738 -75.86232 12483 ft 315 kts 257°
2026-05-05 23:37 38.78297 -75.88968 12054 ft 312 kts 257°
2026-05-05 23:37 38.77860 -75.91676 11641 ft 309 kts 257°
2026-05-05 23:37 38.77425 -75.94368 11203 ft 307 kts 257°
2026-05-05 23:37 38.76991 -75.97046 11062 ft 309 kts 257°
2026-05-05 23:38 38.76554 -75.99742 11030 ft 310 kts 257°
2026-05-05 23:38 38.76114 -76.02447 11039 ft 310 kts 256°
2026-05-05 23:38 38.75675 -76.05154 11037 ft 311 kts 257°
2026-05-05 23:38 38.75576 -76.07916 11024 ft 312 kts 273°
2026-05-05 23:39 38.75939 -76.10656 10548 ft 313 kts 276°
2026-05-05 23:39 38.76340 -76.13391 10165 ft 311 kts 277°
2026-05-05 23:39 38.76749 -76.16121 10050 ft 314 kts 277°
2026-05-05 23:39 38.77162 -76.18846 10030 ft 316 kts 277°
2026-05-05 23:40 38.77585 -76.21620 10036 ft 317 kts 277°
2026-05-05 23:40 38.78009 -76.24399 10032 ft 318 kts 277°
2026-05-05 23:40 38.78433 -76.27173 10035 ft 317 kts 277°
2026-05-05 23:40 38.78856 -76.29948 10037 ft 317 kts 277°
2026-05-05 23:41 38.79279 -76.32725 10034 ft 317 kts 277°
2026-05-05 23:41 38.79700 -76.35501 10036 ft 317 kts 277°
2026-05-05 23:41 38.80123 -76.38280 10033 ft 318 kts 277°
2026-05-05 23:41 38.80544 -76.41056 10030 ft 318 kts 277°
2026-05-05 23:42 38.80964 -76.43830 10032 ft 317 kts 277°
2026-05-05 23:42 38.81383 -76.46604 10028 ft 317 kts 277°
2026-05-05 23:42 38.81800 -76.49374 10029 ft 317 kts 277°
2026-05-05 23:42 38.82218 -76.52146 10026 ft 317 kts 277°
2026-05-05 23:43 38.82634 -76.54919 10022 ft 317 kts 277°
2026-05-05 23:43 38.83050 -76.57695 10021 ft 317 kts 277°
2026-05-05 23:43 38.83462 -76.60437 9993 ft 306 kts 277°
2026-05-05 23:43 38.83856 -76.63068 9810 ft 293 kts 276°
2026-05-05 23:44 38.84231 -76.65585 9392 ft 282 kts 276°
2026-05-05 23:44 38.84591 -76.67996 9000 ft 272 kts 276°
2026-05-05 23:44 38.84939 -76.70337 8612 ft 263 kts 275°
2026-05-05 23:44 38.85281 -76.72633 8078 ft 261 kts 275°
2026-05-05 23:45 38.85618 -76.74907 7554 ft 258 kts 275°
2026-05-05 23:45 38.85953 -76.77166 7073 ft 258 kts 275°
2026-05-05 23:45 38.86284 -76.79404 6759 ft 254 kts 275°
2026-05-05 23:45 38.86614 -76.81635 6334 ft 255 kts 275°
2026-05-05 23:46 38.86941 -76.83855 6070 ft 251 kts 275°
2026-05-05 23:46 38.87267 -76.86072 6015 ft 254 kts 275°
2026-05-05 23:46 38.87606 -76.88296 6001 ft 255 kts 278°
2026-05-05 23:46 38.88422 -76.90345 5984 ft 266 kts 303°
2026-05-05 23:47 38.89717 -76.92083 6010 ft 270 kts 307°
2026-05-05 23:47 38.91034 -76.93803 5994 ft 271 kts 308°
2026-05-05 23:47 38.92361 -76.95525 6006 ft 272 kts 308°
2026-05-05 23:47 38.93696 -76.97242 6011 ft 272 kts 308°
2026-05-05 23:48 38.95036 -76.98963 6007 ft 272 kts 308°
2026-05-05 23:48 38.96373 -77.00677 5999 ft 272 kts 308°
2026-05-05 23:48 38.97690 -77.02364 6012 ft 260 kts 308°
2026-05-05 23:48 38.98933 -77.03955 6009 ft 242 kts 307°
2026-05-05 23:49 39.00069 -77.05405 6057 ft 220 kts 307°
2026-05-05 23:49 39.01110 -77.06739 6045 ft 203 kts 306°
2026-05-05 23:49 39.02087 -77.07999 5769 ft 198 kts 306°
2026-05-05 23:49 39.03062 -77.09252 5363 ft 197 kts 306°
2026-05-05 23:50 39.04040 -77.10485 4956 ft 198 kts 307°
2026-05-05 23:50 39.05039 -77.11719 4598 ft 199 kts 307°
2026-05-05 23:50 39.06040 -77.12952 4289 ft 200 kts 307°
2026-05-05 23:50 39.06909 -77.14274 4046 ft 185 kts 285°
2026-05-05 23:51 39.07001 -77.15789 3939 ft 160 kts 245°
2026-05-05 23:51 39.06672 -77.16584 4006 ft 151 kts 231°
2026-05-05 23:51 39.05804 -77.18058 4078 ft 156 kts 229°
2026-05-05 23:51 39.05146 -77.19164 4041 ft 156 kts 229°
2026-05-05 23:52 39.04471 -77.20252 4019 ft 155 kts 223°
2026-05-05 23:52 39.03868 -77.20720 3972 ft 154 kts 198°
2026-05-05 23:52 39.02804 -77.20929 3998 ft 154 kts 187°
2026-05-05 23:52 39.01725 -77.20739 3579 ft 163 kts 167°
2026-05-05 23:53 39.00745 -77.19952 3256 ft 168 kts 148°
2026-05-05 23:53 38.99565 -77.18647 2757 ft 169 kts 147°
2026-05-05 23:53 38.98960 -77.17987 2502 ft 169 kts 147°
2026-05-05 23:53 38.98067 -77.17018 2093 ft 167 kts 146°
2026-05-05 23:54 38.97198 -77.16081 1790 ft 161 kts 145°
2026-05-05 23:54 38.96391 -77.15187 1690 ft 144 kts 145°
2026-05-05 23:54 38.95648 -77.14361 1766 ft 140 kts 145°
2026-05-05 23:54 38.94903 -77.13537 1842 ft 142 kts 145°
2026-05-05 23:55 38.94154 -77.12709 1917 ft 142 kts 147°
2026-05-05 23:55 38.93388 -77.11881 1876 ft 147 kts 150°
2026-05-05 23:55 38.92521 -77.11162 1871 ft 151 kts 154°
2026-05-05 23:55 38.91628 -77.10412 1870 ft 155 kts 152°
2026-05-05 23:56 38.90923 -77.09342 1842 ft 162 kts 126°
2026-05-05 23:56 38.90440 -77.08016 1790 ft 167 kts 117°
2026-05-05 23:56 38.90116 -77.06612 1417 ft 160 kts 122°
2026-05-05 23:56 38.89500 -77.05561 1082 ft 140 kts 151°
2026-05-05 23:57 38.88736 -77.04826 777 ft 134 kts 149°
2026-05-05 23:57 38.87998 -77.04167 499 ft 129 kts 160°
2026-05-05 23:57 38.87150 -77.03921 240 ft 125 kts 187°
2026-05-05 23:57 38.86300 -77.03890 66 ft 121 kts 178°
2026-05-05 23:58 38.85509 -77.03807 29 ft 109 kts 177°
2026-05-05 23:58 38.84975 -77.03762 27 ft 31 kts 178°
2026-05-05 23:58 38.84887 -77.03817 27 ft 0 kts 245°
2026-05-05 23:58 38.84887 -77.03819 27 ft 1 kts 250°
2026-05-05 23:59 38.84886 -77.03834 27 ft 4 kts 269°
2026-05-05 23:59 38.84924 -77.03892 29 ft 12 kts 347°
2026-05-05 23:59 38.85016 -77.03920 26 ft 15 kts 327°
2026-05-05 23:59 38.85120 -77.03974 26 ft 18 kts 354°
2026-05-06 00:00 38.85241 -77.03987 26 ft 14 kts 356°
2026-05-06 00:00 38.85347 -77.03997 26 ft 17 kts 355°
2026-05-06 00:00 38.85463 -77.04009 27 ft 11 kts 354°
2026-05-06 00:00 38.85550 -77.04032 27 ft 14 kts 350°
2026-05-06 00:01 38.85646 -77.04051 27 ft 0 kts 344°
2026-05-06 00:01 38.85648 -77.04052 27 ft 2 kts 341°
2026-05-06 00:02 38.85672 -77.04071 27 ft 7 kts 325°
2026-05-06 00:02 38.85698 -77.04117 27 ft 5 kts 258°
2026-05-06 00:02 38.85674 -77.04164 27 ft 2 kts 229°
2026-05-06 00:02 38.85667 -77.04175 27 ft 0 kts 229°